Location: Goettingen
(51.5300°N, 9.9433°E)
Time: 12:15:11
(UTC+02:00)

ISS - Pass Details

Date: 20 May 2018
Orbit: 402 x 407 km, 51.6° (Epoch: 24 May)

Event Time Altitude Azimuth Distance (km) Brightness Sun altitude
Exits shadow 00:06:16 19° 92° (E) 1,043 -2.0 -16.9°
Drops below altitude 10° 00:07:22 10° 83° (E) 1,459 -1.1 -17.0°
Sets 00:09:31 0° 77° (ENE) 2,320 0.0 -17.1°
